AirNav   Air Wisconsin pilot careers
 
 1413 users online  

29D Grove City Airport
Grove City, Pennsylvania, USA

GOING TO GROVE CITY?


FAA INFORMATION EFFECTIVE 12 SEPTEMBER 2019

Location

FAA Identifier: 29D
Lat/Long: 41-08-45.7000N 080-10-03.9000W
41-08.761667N 080-10.065000W
41.1460278,-80.1677500
(estimated)
Elevation: 1370 ft. / 417.6 m (surveyed)
Variation: 09W (2010)
From city: 3 miles W of GROVE CITY, PA
Time zone: UTC -4 (UTC -5 during Standard Time)
Zip code: 16137

Airport Operations

Airport use: Open to the public
Activation date: 02/1975
Control tower: no
ARTCC: CLEVELAND CENTER
FSS: ALTOONA FLIGHT SERVICE STATION
NOTAMs facility: AOO (NOTAM-D service available)
Attendance: MON-FRI 0900-1700
CLOSED THANKSGIVING, CHRISTMAS & NEW YEAR'S DAY.
Wind indicator: lighted
Segmented circle: yes
Lights: ACTVT MIRL RY 10/28 - CTAF.
Beacon: white-green (lighted land airport)
Operates sunset to sunrise.

Airport Communications

CTAF/UNICOM: 122.725
YOUNGSTOWN APPROACH: 133.95
YOUNGSTOWN DEPARTURE: 133.95
WX AWOS-3PT at UCP (13 nm SW): 124.175 ((724) 652-4184)
WX AWOS-3PT at FKL (20 nm NE): 118.175 ((814) 437-2066)
  • APCH/DEP SVC PRVDD BY CLEVELAND ARTCC (ZOB) ON FREQS 120.775/298.95 (CHARDON RCAG) WHEN YOUNGSTOWN APCH CTL CLSD.
  • ELLWOOD CITY RCO 122.1R 115.8T (ALTOONA RADIO)

Nearby radio navigation aids

VOR radial/distance  VOR name  Freq  Var
EWCr014/19.4ELLWOOD CITY VOR/DME115.8008W
FKLr225/(22.5)FRANKLIN VOR109.6006W
YNGr121/25.4YOUNGSTOWN VORTAC109.0005W
CIPr276/32.1CLARION VOR/DME112.9006W

 
NDB name  Hdg/Dist  Freq  Var  ID
CASTLE066/13.427209WUCP ..- -.-. .--.

Airport Services

Fuel available: 100LL JET-A
24 HR FUEL AVBL WITH CREDIT CARD.
JET-A ANTI-ICE INHIBITOR AVBL ON REQ.
Parking: hangars and tiedowns
Bottled oxygen: NONE

Runway Information

Runway 10/28

Dimensions: 4500 x 75 ft. / 1372 x 23 m
Surface: asphalt, in fair condition
Weight bearing capacity: 
Single wheel: 12.5
Runway edge lights: medium intensity
Runway edge markings: RY MARKINGS ARE FADED.
Gradient: W
RUNWAY 10  RUNWAY 28
Latitude: 41-08.776833N41-08.748333N
Longitude: 080-10.555333W080-09.575667W
Elevation: 1370.0 ft.1297.0 ft.
Traffic pattern: leftleft
Runway heading: 101 magnetic, 092 true281 magnetic, 272 true
Markings: nonprecision, in fair conditionnonprecision, in fair condition
Visual slope indicator: 2-light PAPI on left (3.80 degrees glide path)
RWY 10 PAPI UNUSABLE BEYOND 5 DEGREES LEFT OF RUNWAY CENTERLINE.
2-light PAPI on left (3.00 degrees glide path)
Runway end identifier lights: yesyes
Touchdown point: yes, no lightsyes, no lights

Airport Ownership and Management from official FAA records

Ownership: Publicly-owned
Owner: BOROUGH OF GROVE CITY
123 W MAIN ST. P.O. BOX 110
GROVE CITY, PA 16127
Phone 724-458-7060
Manager: DOUG THOMAS
40 OAKLEY KELLY DRIVE
MERCER, PA 16137-8411
Phone 724-748-5530
MGR CELL PHONE NR 724-992-1630

Airport Operational Statistics

Aircraft based on the field: 18
Single engine airplanes: 10
Multi engine airplanes: 3
Jet airplanes: 1
Helicopters: 2
Ultralights: 2
    
Aircraft operations: avg 34/day *
83% local general aviation
16% transient general aviation
<1% military
<1% air taxi
* for 12-month period ending 25 September 2018

Additional Remarks

DEER & GEESE ON AND INVOF ARPT.
DRAINAGE RAVINE 15 FT DEEP LCTD IN SAFETY AREA NORTH OF RY 10.
TWY LGTS STUB TO APRON.
AVOID OVERFLYING FLD DURG DALGT VFR BECAUSE OF PARACHUTE JUMPING ACTIVITY NW CORNER OF FLD.
FOR APCH/DEP CTC CLEVELAND ARTCC AT 440-774-0227 WHEN YOUNGSTOWN APCH CTL CLSD.

Instrument Procedures

NOTE: All procedures below are presented as PDF files. If you need a reader for these files, you should download the free Adobe Reader.

NOT FOR NAVIGATION. Please procure official charts for flight.
FAA instrument procedures published for use from 12 September 2019 at 0901Z to 10 October 2019 at 0900Z.

 
IAPs - Instrument Approach Procedures
RNAV (GPS) RWY 10   download (170KB)
RNAV (GPS) RWY 28   download (177KB)
VOR/DME-A   download (155KB)
NOTE: Special Take-Off Minimums/Departure Procedures apply   download (149KB)

Other nearby airports with instrument procedures:

KUCP - New Castle Municipal Airport (13 nm SW)
KFKL - Venango Regional Airport (20 nm NE)
KPJC - Zelienople Municipal Airport (21 nm S)
4G1 - Greenville Municipal Airport (21 nm NW)
KYNG - Youngstown-Warren Regional Airport (24 nm W)
 
Loc | Ops | Rwys | IFR | FBO | Links
Com | Nav | Svcs | Stats | Notes
Area around 29D (Grove City Airport)
 
Road maps at: MapQuest Bing Google
 
Aerial photo
WARNING: Photo may not be current or correct
Aerial photo of 29D (Grove City Airport)
Photo by Bill Pixley
Photo taken 20-Aug-2017
looking west-northwest.

Do you have a better or more recent aerial photo of Grove City Airport that you would like to share? If so, please send us your photo.

 
Sectional chart

 
Airport distance calculator
Flying to Grove City Airport? Find the distance to fly.

From to 29D

Sunrise and sunset
Times for 23-Sep-2019
 Local
(UTC-4)
 Zulu
(UTC)
Morning civil twilight06:4310:43
Sunrise07:1011:10
Sunset19:1623:16
Evening civil twilight19:4323:43

Current date and time
Zulu (UTC)  23-Sep-2019 14:24:59
Local (UTC-4)  23-Sep-2019 10:24:59
 
METAR
KUCP 
13nm SW 
231356Z AUTO 22005KT 10SM OVC026 22/17 A2993 RMK AO2 SLP142 T02220172 PNO $
KFKL 
19nm NE 
231356Z AUTO 22008G15KT 10SM BKN025 OVC080 19/16 A2992 RMK AO2 RAE08 SLP126 P0000 T01940161
KPJC 
21nm S 
231356Z AUTO 00000KT 10SM RA SCT034 SCT042 OVC050 20/15 A2993 RMK AO2
KYNG 
23nm W 
231351Z 22011KT 10SM BKN020 OVC045 22/17 A2990 RMK AO2 SLP117 T02170167 $
KBTP 
25nm SE 
231356Z AUTO 20005KT 10SM BKN036 OVC050 19/16 A2995 RMK AO2 RAB02E30 SLP140 T01940161 PNO $
KBVI 
25nm SW 
231355Z AUTO 21009KT 10SM BKN029 BKN037 OVC055 21/15 A2994 RMK AO2 T02100151
TAF
KFKL 
19nm NE 
231127Z 2312/2412 22010KT P6SM -SHRA BKN060 FM231400 21012KT P6SM VCSH BKN030 FM231700 23011G19KT P6SM -SHRA OVC015 FM232100 28010G18KT P6SM BKN035 FM240000 26006KT P6SM SCT030 FM240900 28005KT P6SM BKN008
KYNG 
23nm W 
231156Z 2312/2412 21012KT P6SM -SHRA SCT030 BKN070 FM231600 26013KT P6SM -SHRA SCT005 OVC015 FM231900 28015G22KT P6SM SCT015 BKN030 FM232300 28010KT P6SM SCT090
NOTAMs
Click for the latest NOTAMs
NOTAMs are issued by the DoD/FAA and will open in a separate window not controlled by AirNav.

 

 
 

FBO, Fuel Providers, and Aircraft Ground Support

  
 Business Name 
 
 Contact 
 
 Services / Description 
 
Fuel Prices
 
Comments
  
Silent Wings Soaring 724-748-5530
no information available

If you are affiliated with Silent Wings Soaring and would like to show here your services, contact info, web link, logo, and more, click here
100LL Jet A
FS $5.35 $3.90 
 Updated 20-Sep-2019
 
   write
FS=Full service
Update Fuel Prices
 

Aviation Businesses, Services, and Facilities

  
 Business Name 
 
 Contact 
 
 Services / Description 
 
Distance
 
Comments
  
Quality Avionics Inc. 724-748-5750
[email]
Avionics sales and service, Aviation accessories
 
FAA-Approved Repair Station   Avidyne   Garmin   S-TEC  
 
More info about Quality Avionics Inc.
on airport  
   2 read write
 

Would you like to see your business listed on this page?

 If your business provides an interesting product or service to pilots, flight crews, aircraft, or users of the Grove City Airport, you should consider listing it here.  To start the listing process, click on the button below
 
Add a business
 

Other Pages about Grove City Airport

Update a link
 
Copyright © AirNav, LLC. All rights reserved. Privacy Policy  Contact